,

(GMT )
Munich

Weather History for EDDM - March, 2013

Change the Weather History Date:

Monday, March 4, 2013

  Actual Average Record
Temperature  
Mean Temperature 28 °F -  
Max Temperature 41 °F 42 °F 69 °F (1998)
Min Temperature 15 °F 27 °F 12 °F (2005)
Degree Days  
Heating Degree Days 37    
Moisture  
Dew Point 25 °F    
Average Humidity 82    
Maximum Humidity 100    
Minimum Humidity 61    
Precipitation  
Precipitation 0.00 in - - ()
Sea Level Pressure  
Sea Level Pressure 30.10 in    
Wind  
Wind Speed 6 mph ()    
Max Wind Speed 16 mph    
Max Gust Speed -    
Visibility 2.3 miles    
Events Fog    
Averages and records for this station are not official NWS values.
T = Trace of Precipitation, MM = Missing Value Source: Averaged Metar Reports

Daily Weather History Graph

Daily Weather History Graph

Search for Another Location

Airport or City:

Astronomy

Mar. 04, 2013 Rise Set
Actual Time 6:48 AM CET 6:02 PM CET
Civil Twilight 6:17 AM CET 6:33 PM CET
Nautical Twilight 5:41 AM CET 7:09 PM CET
Astronomical Twilight 5:05 AM CET 7:45 PM CET
Moon 12:58 AM CET (3/4) 10:09 AM CET (3/4)
Length of Visible Light 12h 15m
Length of Day
11h 13m
Waning Gibbous, 55% of the Moon is Illuminated
Mar 4
Waning Gibbous
Mar 4
Last Quarter
Mar 11
New
Mar 19
First Quarter
Mar 27
Full

Hourly Weather History & Observations

Time (CET) Temp. Windchill Dew Point Humidity Pressure Visibility Wind Dir Wind Speed Gust Speed Precip Events Conditions
12:20 AM 21.2 °F 16.4 °F 21.2 °F 100% 30.15 in 3.7 mi NE 3.5 mph - N/A Fog Patches of Fog
12:50 AM 21.2 °F 16.4 °F 21.2 °F 100% 30.15 in 3.7 mi ESE 3.5 mph - N/A Fog Patches of Fog
1:20 AM 21.2 °F - 21.2 °F 100% 30.15 in 3.1 mi East 1.2 mph - N/A Fog Patches of Fog
1:50 AM 19.4 °F 14.3 °F 19.4 °F 100% 30.15 in 3.1 mi East 3.5 mph - N/A Fog Patches of Fog
2:20 AM 19.4 °F 14.3 °F 19.4 °F 100% 30.15 in 2.5 mi East 3.5 mph - N/A Fog Patches of Fog
2:50 AM 19.4 °F 14.3 °F 19.4 °F 100% 30.15 in 1.9 mi ENE 3.5 mph - N/A Fog Patches of Fog
3:20 AM 17.6 °F - 17.6 °F 100% 30.12 in 1.9 mi NE 2.3 mph - N/A Fog Patches of Fog
3:50 AM 17.6 °F - 17.6 °F 100% 30.12 in 1.9 mi NNE 2.3 mph - N/A Fog Patches of Fog
4:20 AM 17.6 °F 12.3 °F 17.6 °F 100% 30.12 in 1.2 mi ENE 3.5 mph - N/A Fog Patches of Fog
4:50 AM 15.8 °F 10.2 °F 15.8 °F 100% 30.12 in 1.2 mi NE 3.5 mph - N/A Fog Patches of Fog
5:20 AM 15.8 °F 8.6 °F 15.8 °F 100% 30.12 in 1.2 mi ENE 4.6 mph - N/A Fog Patches of Fog
5:50 AM 17.6 °F 10.7 °F 17.6 °F 100% 30.12 in 1.6 mi East 4.6 mph - N/A Fog Patches of Fog
6:20 AM 19.4 °F 10.4 °F 19.4 °F 100% 30.12 in 1.6 mi East 6.9 mph - N/A   Mist
6:50 AM 19.4 °F 11.5 °F 19.4 °F 100% 30.12 in 1.6 mi East 5.8 mph - N/A   Mist
7:20 AM 17.6 °F 10.7 °F 17.6 °F 100% 30.12 in 1.6 mi East 4.6 mph - N/A   Mist
7:50 AM 21.2 °F 12.6 °F 21.2 °F 100% 30.15 in 1.7 mi ENE 6.9 mph - N/A   Mist
8:20 AM 24.8 °F 17.9 °F 24.8 °F 100% 30.15 in - East 5.8 mph - N/A   Mist
8:50 AM 26.6 °F 17.5 °F 26.6 °F 100% 30.15 in - East 9.2 mph - N/A   Mist
9:20 AM 28.4 °F 19.7 °F 28.4 °F 100% 30.15 in 3.7 mi East 9.2 mph - N/A   Unknown
9:50 AM 30.2 °F 20.2 °F 28.4 °F 93% 30.15 in 5.0 mi East 12.7 mph - N/A   Unknown
10:20 AM 32.0 °F 22.5 °F 28.4 °F 87% 30.15 in - East 12.7 mph - N/A   Clear
10:50 AM 33.8 °F 24.8 °F 28.4 °F 81% 30.15 in - East 12.7 mph - N/A   Clear
11:20 AM 35.6 °F 27.5 °F 28.4 °F 75% 30.15 in - East 11.5 mph - N/A   Clear
11:50 AM 37.4 °F 30.3 °F 28.4 °F 70% 30.15 in - East 10.4 mph - N/A   Clear
12:20 PM 37.4 °F 29.8 °F 28.4 °F 70% 30.12 in - East 11.5 mph - N/A   Clear
12:50 PM 39.2 °F 31.6 °F 28.4 °F 65% 30.12 in - East 12.7 mph - N/A   Clear
1:20 PM 39.2 °F 32.0 °F 28.4 °F 65% 30.09 in - East 11.5 mph - N/A   Clear
1:50 PM 39.2 °F 31.2 °F 28.4 °F 65% 30.09 in - East 13.8 mph - N/A   Clear
2:20 PM 41.0 °F 33.1 °F 28.4 °F 61% 30.09 in - East 15.0 mph - N/A   Clear
2:50 PM 41.0 °F 33.1 °F 28.4 °F 61% 30.09 in - East 15.0 mph - N/A   Clear
3:20 PM 41.0 °F 33.1 °F 28.4 °F 61% 30.06 in - East 15.0 mph - N/A   Clear
3:50 PM 41.0 °F 32.8 °F 28.4 °F 61% 30.06 in - East 16.1 mph - N/A   Clear
4:20 PM 41.0 °F 33.1 °F 28.4 °F 61% 30.06 in - East 15.0 mph - N/A   Clear
4:50 PM 41.0 °F 33.1 °F 28.4 °F 61% 30.04 in - East 15.0 mph - N/A   Clear
5:20 PM 39.2 °F 31.6 °F 28.4 °F 65% 30.04 in - East 12.7 mph - N/A   Clear
5:50 PM 39.2 °F 32.0 °F 28.4 °F 65% 30.04 in - East 11.5 mph - N/A   Clear
6:20 PM 37.4 °F 30.3 °F 28.4 °F 70% 30.04 in - ENE 10.4 mph - N/A   Clear
6:50 PM 37.4 °F 31.4 °F 26.6 °F 65% 30.04 in - East 8.1 mph - N/A   Clear
7:20 PM 35.6 °F 30.7 °F 26.6 °F 70% 30.04 in - East 5.8 mph - N/A   Clear
7:50 PM 35.6 °F 30.7 °F 24.8 °F 65% 30.04 in - East 5.8 mph - N/A   Clear
8:20 PM 33.8 °F 27.0 °F 24.8 °F 70% 30.04 in - East 8.1 mph - N/A   Clear
8:50 PM 33.8 °F 27.7 °F 24.8 °F 70% 30.04 in - East 6.9 mph - N/A   Clear
9:20 PM 33.8 °F 27.0 °F 26.6 °F 75% 30.04 in - East 8.1 mph - N/A   Clear
9:50 PM 33.8 °F 25.8 °F 26.6 °F 75% 30.04 in - East 10.4 mph - N/A   Clear
10:20 PM 33.8 °F 26.4 °F 26.6 °F 75% 30.04 in - East 9.2 mph - N/A   Clear
10:50 PM 32.0 °F 24.8 °F 26.6 °F 80% 30.04 in - East 8.1 mph - N/A   Clear
11:20 PM 32.0 °F 24.2 °F 26.6 °F 80% 30.01 in - East 9.2 mph - N/A   Clear
11:50 PM 32.0 °F 24.2 °F 26.6 °F 80% 30.01 in - ENE 9.2 mph - N/A   Clear